Location: 22
(39.7117°N, 89.5929°W)
Time: 08:44:22
(UTC-05:00)

Transit 2A - Pass Details

Date: 09 August 2024
Orbit: 590 x 961 km, 66.7° (Epoch: 13 September)

Event Time Altitude Azimuth Distance (km) Brightness Sun altitude
Rises 14:42:06 0° 318° (NW) 3,650 9.5 57.7°
Reaches altitude 10° 14:45:13 10° 304° (NW) 2,691 9.1 57.2°
Maximum altitude 14:49:58 23° 255° (WSW) 1,885 9.0 56.5°
Drops below altitude 10° 14:54:33 10° 206° (SSW) 2,579 9.4 55.8°
Sets 14:57:29 0° 192° (SSW) 3,461 9.7 55.4°
